This is the latest recevied weather packets stored in our database for station/object DH1FR-13. If no packets are shown the sender has not sent any weather packets the latest 10 day(s).
| Time | Temp. | Humidity | Pressure | Rain* | Wind** | Luminosity | Snow |
|---|---|---|---|---|---|---|---|
| 1776941401 | 18.33° C | 31% | 1029.6 hPa | 0 mm | 0 m/s | - | - |
| 1776940801 | 18.33° C | 33% | 1029.7 hPa | 0 mm | 0 m/s | - | - |
| 1776940201 | 16.67° C | 36% | 1029.9 hPa | 0 mm | 0 m/s | - | - |
| 1776939600 | 16.67° C | 41% | 1030.1 hPa | 0 mm | 0 m/s | - | - |
| 1776939001 | 16.11° C | 43% | 1030.2 hPa | 0 mm | 0 m/s | - | - |
| 1776937201 | 15.56° C | 47% | 1030.3 hPa | 0 mm | 0 m/s | - | - |
| 1776936601 | 15.56° C | 46% | 1030.4 hPa | 0 mm | 0 m/s | - | - |
| 1776936001 | 13.89° C | 47% | 1030.6 hPa | 0 mm | 0 m/s | - | - |
| 1776935400 | 13.33° C | 49% | 1031 hPa | 0 mm | 0 m/s | - | - |
| 1776934801 | 13.89° C | 52% | 1030.9 hPa | 0 mm | 0 m/s | - | - |
| 1776934201 | 13.89° C | 49% | 1030.9 hPa | 0 mm | 0 m/s | - | - |
| 1776933601 | 12.78° C | 52% | 1030.9 hPa | 0 mm | 0 m/s | - | - |
| 1776933001 | 12.78° C | 52% | 1030.9 hPa | 0 mm | 0 m/s | - | - |
| 1776932400 | 12.22° C | 54% | 1031 hPa | 0 mm | 0 m/s | - | - |
| 1776931201 | 12.78° C | 57% | 1030.8 hPa | 0 mm | 0 m/s | - | - |
| 1776930601 | 11.67° C | 60% | 1030.9 hPa | 0 mm | 0 m/s | - | - |
| 1776930001 | 10.56° C | 65% | 1031.1 hPa | 0 mm | 0 m/s | - | - |
| 1776929401 | 10.56° C | 67% | 1030.7 hPa | 0 mm | 0 m/s | - | - |
| 1776928800 | 9.44° C | 67% | 1030.9 hPa | 0 mm | 0 m/s | - | - |
| 1776927601 | 7.78° C | 70% | 1031 hPa | 0 mm | 0 m/s | - | - |
| 1776927001 | 7.22° C | 73% | 1030.8 hPa | 0 mm | 0 m/s | - | - |
| 1776926400 | 6.67° C | 74% | 1030.9 hPa | 0 mm | 0 m/s | - | - |
| 1776925801 | 6.11° C | 77% | 1030.9 hPa | 0 mm | 0 m/s | - | - |
| 1776925201 | 5° C | 81% | 1031 hPa | 0 mm | 0 m/s | - | - |
| 1776924601 | 2.78° C | 89% | 1030.9 hPa | 0 mm | 0 m/s | - | - |
* Rain latest hour (hover to see other rain measurements)
** Current wind speed in m/s (hover to see current wind gust speed)